Location: Julian California
(33.0790°N, 116.6010°W)
Time: 14:36:35
(UTC-08:00)

NOAA 11 - Pass Details

Date: 12 July 2018
Orbit: 833 x 849 km, 98.5° (Epoch: 12 November)

Event Time Altitude Azimuth Distance (km) Brightness Sun altitude
Exits shadow 21:01:14 - 169° (S) 2,708 6.4 -12.3°
Reaches altitude 10° 21:01:57 10° 169° (S) 2,430 6.2 -12.4°
Maximum altitude 21:07:20 81° 257° (WSW) 846 4.2 -13.3°
Drops below altitude 10° 21:12:47 10° 345° (NNW) 2,450 7.4 -14.2°
Sets 21:15:09 0° 347° (NNW) 3,390 8.2 -14.6°
